{"data":{"norad_id":44725,"intl_designator":"2019-074N","name":"STARLINK-1020","alt_names":[],"object_type":"PAYLOAD","status":"ACTIVE","operator":null,"country":"US","launch_date":"2019-11-11","launch_site_code":"AFETR","launch_vehicle":null,"mission":null,"orbit_class":"UNKNOWN","rcs_meters":null,"size_class":null,"mass_kg":null,"dimensions":null,"purposes":["comms"],"wikipedia_slug":null,"has_3d_model":false,"image_url":null,"decayed_at":null,"tle_current":{"epoch":"2026-09-19T19:20:32.862624Z","epoch_age_seconds":74385,"freshness":"FRESH","line1":"1 44725U 19074N   26262.80593591  .00035487  00000+0  29903-3 0  9993","line2":"2 44725  53.1532 350.8666 0002355  14.3864 345.7220 15.69504074378651","mean_motion":15.69504074,"eccentricity":0.0002355,"inclination_deg":53.1532,"raan_deg":350.8666,"arg_perigee_deg":14.3864,"mean_anomaly_deg":345.722,"bstar":0.00029903,"rev_number":37865,"period_min":91.748726483395,"perigee_km":358.7291905327,"apogee_km":361.90300194103,"semimajor_km":6738.4530962369,"source":"CELESTRAK","updated_at":"2026-09-20T09:00:38.218625Z"}}}